• In Russia
  • List of Countries
  • For 7 days
  • Water Temperature
  • Satellite Maps
  • Weather Map
  • Weather Widgets
  • user-avatar
    Login

    Hourly Weather El Guna

    Today, 24 May, Thursday

    Time Temperature Precipitation Wind Pressure Humidity
    00:00 +36°C° 0 mm 5 mps 733 mmHg 18%
    01:00 +35°C° 0 mm 4 mps 733 mmHg 20%
    02:00 +34°C° 0 mm 5 mps 732 mmHg 21%
    03:00 +34°C° 0 mm 4 mps 732 mmHg 21%
    04:00 +33°C° 0 mm 4 mps 732 mmHg 21%
    05:00 +33°C° 0 mm 3 mps 732 mmHg 20%
    06:00 +35°C° 0 mm 4 mps 733 mmHg 18%
    07:00 +36°C° 0 mm 4 mps 733 mmHg 15%
    08:00 +39°C° 0 mm 5 mps 733 mmHg 12%
    09:00 +40°C° 0 mm 5 mps 733 mmHg 11%
    10:00 +41°C° 0 mm 5 mps 733 mmHg 10%
    11:00 +42°C° 0 mm 5 mps 732 mmHg 10%
    12:00 +43°C° 0 mm 5 mps 732 mmHg 9%
    13:00 +44°C° 0 mm 6 mps 732 mmHg 9%
    14:00 +45°C° 0 mm 6 mps 731 mmHg 8%
    15:00 +44°C° 0 mm 7 mps 731 mmHg 9%
    16:00 +44°C° 0 mm 7 mps 731 mmHg 9%
    17:00 +43°C° 0 mm 7 mps 730 mmHg 10%
    18:00 +41°C° 0 mm 7 mps 730 mmHg 11%
    19:00 +39°C° 0 mm 6 mps 730 mmHg 13%
    20:00 +37°C° 0 mm 5 mps 730 mmHg 14%
    21:00 +36°C° 0 mm 5 mps 731 mmHg 15%
    22:00 +35°C° 0 mm 4 mps 731 mmHg 15%
    23:00 +35°C° 0 mm 3 mps 731 mmHg 16%

    Tomorrow, 25 May, Friday

    Time Temperature Precipitation Wind Pressure Humidity
    00:00 +34°C° 0 mm 3 mps 731 mmHg 16%
    01:00 +34°C° 0 mm 3 mps 730 mmHg 16%
    02:00 +33°C° 0 mm 3 mps 730 mmHg 16%
    03:00 +32°C° 0 mm 2 mps 730 mmHg 17%
    04:00 +31°C° 0 mm 2 mps 730 mmHg 17%
    05:00 +31°C° 0 mm 2 mps 730 mmHg 18%
    06:00 +33°C° 0 mm 3 mps 730 mmHg 17%
    07:00 +35°C° 0 mm 3 mps 731 mmHg 17%
    08:00 +36°C° 0 mm 4 mps 731 mmHg 17%
    09:00 +37°C° 0 mm 3 mps 731 mmHg 16%
    10:00 +38°C° 0 mm 3 mps 731 mmHg 15%
    11:00 +39°C° 0 mm 2 mps 730 mmHg 14%
    12:00 +40°C° 0 mm 3 mps 730 mmHg 13%
    13:00 +41°C° 0 mm 4 mps 730 mmHg 13%
    14:00 +42°C° 0 mm 4 mps 730 mmHg 12%
    15:00 +41°C° 0 mm 4 mps 729 mmHg 13%
    16:00 +40°C° 0 mm 3 mps 729 mmHg 13%
    17:00 +39°C° 0 mm 3 mps 729 mmHg 14%
    18:00 +38°C° 0 mm 3 mps 729 mmHg 15%
    19:00 +37°C° 0 mm 2 mps 729 mmHg 17%
    20:00 +35°C° 0 mm 2 mps 729 mmHg 18%
    21:00 +35°C° 0 mm 2 mps 729 mmHg 18%
    22:00 +34°C° 0 mm 2 mps 730 mmHg 18%
    23:00 +33°C° 0 mm 1 mps 730 mmHg 19%

    Day after tomorrow, 26 May, Saturday

    Time Temperature Precipitation Wind Pressure Humidity
    00:00 +34°C° 0 mm 2 mps 729 mmHg 20%
    01:00 +34°C° 0 mm 2 mps 729 mmHg 21%
    02:00 +34°C° 0 mm 3 mps 729 mmHg 22%
    03:00 +33°C° 0.1 mm 3 mps 728 mmHg 23%
    04:00 +33°C° 0.1 mm 3 mps 728 mmHg 24%
    05:00 +31°C° 0.1 mm 3 mps 728 mmHg 25%
    06:00 +33°C° 0 mm 3 mps 728 mmHg 24%
    07:00 +34°C° 0 mm 2 mps 728 mmHg 23%
    08:00 +36°C° 0 mm 2 mps 729 mmHg 21%
    09:00 +37°C° 0 mm 2 mps 729 mmHg 19%
    10:00 +39°C° 0 mm 2 mps 729 mmHg 17%
    11:00 +40°C° 0 mm 2 mps 729 mmHg 15%
    12:00 +40°C° 0.1 mm 3 mps 729 mmHg 15%
    13:00 +40°C° 0.1 mm 3 mps 728 mmHg 15%
    14:00 +40°C° 0.1 mm 3 mps 728 mmHg 14%
    15:00 +40°C° 0.3 mm 3 mps 728 mmHg 14%
    16:00 +40°C° 0.3 mm 3 mps 728 mmHg 14%
    17:00 +40°C° 0.3 mm 3 mps 727 mmHg 13%
    18:00 +39°C° 0.1 mm 3 mps 728 mmHg 15%
    19:00 +37°C° 0.1 mm 3 mps 728 mmHg 17%
    20:00 +36°C° 0.1 mm 2 mps 729 mmHg 18%
    21:00 +35°C° 0 mm 2 mps 729 mmHg 20%
    22:00 +35°C° 0 mm 2 mps 729 mmHg 22%
    23:00 +34°C° 0 mm 2 mps 729 mmHg 24%

    27 May, Sunday

    Time Temperature Precipitation Wind Pressure Humidity
    00:00 +33°C° 0 mm 3 mps 728 mmHg 27%
    01:00 +33°C° 0 mm 3 mps 728 mmHg 29%
    02:00 +32°C° 0 mm 4 mps 728 mmHg 31%
    03:00 +32°C° 0 mm 4 mps 728 mmHg 34%
    04:00 +30°C° 0 mm 4 mps 728 mmHg 37%
    05:00 +30°C° 0 mm 3 mps 728 mmHg 39%
    06:00 +32°C° 0 mm 4 mps 728 mmHg 37%
    07:00 +33°C° 0 mm 4 mps 729 mmHg 34%
    08:00 +34°C° 0 mm 4 mps 729 mmHg 31%
    09:00 +35°C° 0 mm 4 mps 729 mmHg 29%
    10:00 +36°C° 0 mm 4 mps 730 mmHg 26%
    11:00 +37°C° 0 mm 4 mps 730 mmHg 23%
    12:00 +38°C° 0 mm 4 mps 729 mmHg 21%
    13:00 +40°C° 0 mm 4 mps 729 mmHg 20%
    14:00 +41°C° 0 mm 5 mps 728 mmHg 18%
    15:00 +40°C° 0 mm 4 mps 728 mmHg 19%
    16:00 +40°C° 0 mm 4 mps 728 mmHg 19%
    17:00 +38°C° 0 mm 4 mps 727 mmHg 19%
    18:00 +37°C° 0 mm 4 mps 728 mmHg 21%
    19:00 +36°C° 0 mm 4 mps 728 mmHg 24%
    20:00 +34°C° 0 mm 4 mps 728 mmHg 26%
    21:00 +34°C° 0.1 mm 4 mps 728 mmHg 26%
    22:00 +34°C° 0.1 mm 4 mps 729 mmHg 27%
    23:00 +33°C° 0.1 mm 4 mps 729 mmHg 28%

    28 May, Monday

    Time Temperature Precipitation Wind Pressure Humidity
    00:00 +33°C° 0.2 mm 3 mps 729 mmHg 29%
    01:00 +31°C° 0.2 mm 3 mps 728 mmHg 31%
    02:00 +31°C° 0.2 mm 3 mps 728 mmHg 33%
    03:00 +31°C° 0.4 mm 3 mps 728 mmHg 34%
    04:00 +30°C° 0.4 mm 3 mps 728 mmHg 35%
    05:00 +30°C° 0.4 mm 3 mps 728 mmHg 36%
    06:00 +31°C° 0.2 mm 3 mps 728 mmHg 35%
    07:00 +33°C° 0.2 mm 3 mps 729 mmHg 34%
    08:00 +33°C° 0.2 mm 4 mps 729 mmHg 33%
    09:00 +34°C° 0.5 mm 3 mps 729 mmHg 32%
    10:00 +35°C° 0.5 mm 3 mps 729 mmHg 30%
    11:00 +36°C° 0.5 mm 3 mps 729 mmHg 28%
    12:00 +37°C° 0 mm 3 mps 729 mmHg 26%
    13:00 +38°C° 0 mm 3 mps 728 mmHg 24%
    14:00 +40°C° 0 mm 4 mps 728 mmHg 22%
    15:00 +39°C° 0 mm 3 mps 728 mmHg 22%
    16:00 +39°C° 0 mm 3 mps 728 mmHg 22%
    17:00 +38°C° 0 mm 3 mps 727 mmHg 23%
    18:00 +38°C° 0 mm 3 mps 728 mmHg 23%
    19:00 +37°C° 0 mm 3 mps 728 mmHg 24%
    20:00 +36°C° 0 mm 3 mps 728 mmHg 24%
    21:00 +36°C° 0 mm 3 mps 729 mmHg 25%
    22:00 +35°C° 0 mm 3 mps 729 mmHg 25%
    23:00 +35°C° 0 mm 4 mps 729 mmHg 25%

    29 May, Tuesday

    Time Temperature Precipitation Wind Pressure Humidity
    00:00 +34°C° 0 mm 4 mps 729 mmHg 28%
    01:00 +33°C° 0 mm 4 mps 728 mmHg 31%
    02:00 +32°C° 0 mm 4 mps 728 mmHg 34%
    03:00 +32°C° 0 mm 4 mps 728 mmHg 36%
    04:00 +30°C° 0 mm 4 mps 729 mmHg 38%
    05:00 +29°C° 0 mm 3 mps 729 mmHg 40%
    06:00 +30°C° 0 mm 4 mps 729 mmHg 37%
    07:00 +32°C° 0 mm 4 mps 729 mmHg 34%
    08:00 +34°C° 0 mm 5 mps 730 mmHg 31%
    09:00 +35°C° 0 mm 5 mps 730 mmHg 27%
    10:00 +36°C° 0 mm 5 mps 729 mmHg 24%
    11:00 +37°C° 0 mm 5 mps 729 mmHg 20%
    12:00 +39°C° 0 mm 5 mps 729 mmHg 19%
    13:00 +40°C° 0 mm 5 mps 729 mmHg 17%
    14:00 +40°C° 0 mm 6 mps 728 mmHg 16%
    15:00 +40°C° 0 mm 6 mps 728 mmHg 16%
    16:00 +39°C° 0 mm 6 mps 728 mmHg 17%
    17:00 +39°C° 0 mm 7 mps 728 mmHg 18%
    18:00 +38°C° 0 mm 6 mps 728 mmHg 20%
    19:00 +36°C° 0 mm 6 mps 729 mmHg 22%
    20:00 +35°C° 0 mm 6 mps 729 mmHg 24%
    21:00 +34°C° 0 mm 6 mps 729 mmHg 25%
    22:00 +34°C° 0 mm 5 mps 729 mmHg 26%
    23:00 +33°C° 0 mm 5 mps 729 mmHg 27%
    Show more